VOZ1139 YSSY-YBNA

Flight info

Callsign VOZ1139
Flight time 1h 2m
Altitude 41000
Route DCT OLSEM Y193 BNA DCT
Aircraft B737/M-SDE3FGHIRWZ/LB1

Departure

Time 2026-05-05 01:36
Airport Sydney Kingsford Smith International Airport (YSSY)

Arrival

Time 2026-05-05 02:38
Airport Ballina Byron Gateway Airport (YBNA)
Time Latitude Longitude Altitude Speed Heading
2026-05-05 01:18 -33.93596 151.17978 29 ft 0 kts 280°
2026-05-05 01:25 -33.93600 151.18007 29 ft 4 kts 277°
2026-05-05 01:25 -33.93601 151.18039 29 ft 4 kts 251°
2026-05-05 01:25 -33.93591 151.18055 29 ft 2 kts 189°
2026-05-05 01:25 -33.93613 151.18052 29 ft 4 kts 184°
2026-05-05 01:26 -33.93640 151.18051 29 ft 4 kts 181°
2026-05-05 01:26 -33.93666 151.18051 29 ft 2 kts 180°
2026-05-05 01:26 -33.93669 151.18051 29 ft 0 kts 180°
2026-05-05 01:30 -33.93686 151.18053 29 ft 7 kts 173°
2026-05-05 01:30 -33.93757 151.18062 29 ft 12 kts 201°
2026-05-05 01:30 -33.93793 151.17972 29 ft 12 kts 255°
2026-05-05 01:30 -33.93815 151.17876 29 ft 12 kts 256°
2026-05-05 01:31 -33.93843 151.17786 29 ft 11 kts 229°
2026-05-05 01:31 -33.93916 151.17783 28 ft 11 kts 166°
2026-05-05 01:31 -33.94006 151.17808 28 ft 15 kts 166°
2026-05-05 01:31 -33.94118 151.17836 28 ft 18 kts 169°
2026-05-05 01:32 -33.94250 151.17869 29 ft 21 kts 168°
2026-05-05 01:32 -33.94394 151.17906 29 ft 20 kts 167°
2026-05-05 01:32 -33.94502 151.17881 29 ft 16 kts 189°
2026-05-05 01:32 -33.94609 151.17904 29 ft 15 kts 167°
2026-05-05 01:33 -33.94721 151.17933 29 ft 17 kts 168°
2026-05-05 01:33 -33.94848 151.17966 29 ft 21 kts 167°
2026-05-05 01:33 -33.94999 151.18005 29 ft 22 kts 168°
2026-05-05 01:33 -33.95092 151.18047 29 ft 12 kts 130°
2026-05-05 01:34 -33.95093 151.18144 29 ft 12 kts 77°
2026-05-05 01:34 -33.95070 151.18271 29 ft 18 kts 77°
2026-05-05 01:34 -33.95043 151.18425 29 ft 19 kts 78°
2026-05-05 01:34 -33.95015 151.18574 29 ft 18 kts 78°
2026-05-05 01:35 -33.94990 151.18714 27 ft 15 kts 78°
2026-05-05 01:35 -33.95004 151.18833 25 ft 15 kts 140°
2026-05-05 01:35 -33.95130 151.18871 23 ft 37 kts 168°
2026-05-05 01:35 -33.95638 151.19002 25 ft 110 kts 167°
2026-05-05 01:36 -33.96588 151.19249 60 ft 163 kts 169°
2026-05-05 01:36 -33.97737 151.19570 668 ft 167 kts 172°
2026-05-05 01:36 -33.98737 151.20216 1446 ft 175 kts 133°
2026-05-05 01:36 -33.99436 151.21584 1796 ft 208 kts 123°
2026-05-05 01:37 -34.00251 151.23175 2103 ft 236 kts 126°
2026-05-05 01:37 -34.01147 151.24904 2659 ft 251 kts 127°
2026-05-05 01:37 -34.02434 151.26382 3204 ft 260 kts 149°
2026-05-05 01:37 -34.03888 151.27675 4239 ft 262 kts 147°
2026-05-05 01:38 -34.05325 151.29018 5177 ft 267 kts 142°
2026-05-05 01:38 -34.06420 151.30867 6051 ft 281 kts 109°
2026-05-05 01:38 -34.06580 151.33230 6958 ft 288 kts 80°
2026-05-05 01:38 -34.05879 151.35503 7736 ft 293 kts 53°
2026-05-05 01:39 -34.04446 151.37215 8653 ft 288 kts 28°
2026-05-05 01:39 -34.02630 151.38193 9579 ft 287 kts 15°
2026-05-05 01:39 -34.00715 151.38952 10395 ft 293 kts 12°
2026-05-05 01:39 -33.98682 151.39695 10653 ft 319 kts 12°
2026-05-05 01:40 -33.96498 151.40483 11147 ft 333 kts 12°
2026-05-05 01:40 -33.94289 151.41292 11890 ft 338 kts 12°
2026-05-05 01:40 -33.92028 151.42133 12736 ft 341 kts 12°
2026-05-05 01:40 -33.89746 151.42990 13592 ft 346 kts 12°
2026-05-05 01:41 -33.87436 151.43864 14363 ft 350 kts 13°
2026-05-05 01:41 -33.85090 151.44754 15116 ft 356 kts 13°
2026-05-05 01:41 -33.82715 151.45658 15912 ft 360 kts 13°
2026-05-05 01:41 -33.80314 151.46573 16693 ft 364 kts 13°
2026-05-05 01:42 -33.77879 151.47502 17460 ft 370 kts 14°
2026-05-05 01:42 -33.75412 151.48443 18215 ft 375 kts 14°
2026-05-05 01:42 -33.72907 151.49398 18932 ft 377 kts 13°
2026-05-05 01:42 -33.70422 151.50349 19869 ft 374 kts 13°
2026-05-05 01:43 -33.67921 151.51302 20493 ft 380 kts 12°
2026-05-05 01:43 -33.65378 151.52267 21095 ft 386 kts 12°
2026-05-05 01:43 -33.62804 151.53245 21761 ft 390 kts 12°
2026-05-05 01:43 -33.60210 151.54230 22437 ft 393 kts 12°
2026-05-05 01:44 -33.57622 151.55213 23075 ft 397 kts 11°
2026-05-05 01:44 -33.54972 151.56218 23708 ft 401 kts 11°
2026-05-05 01:44 -33.52295 151.57234 24239 ft 404 kts 11°
2026-05-05 01:44 -33.49618 151.58251 24901 ft 403 kts 10°
2026-05-05 01:45 -33.46953 151.59264 25567 ft 402 kts
2026-05-05 01:45 -33.44286 151.60276 26166 ft 402 kts
2026-05-05 01:45 -33.41606 151.61290 26725 ft 404 kts
2026-05-05 01:45 -33.38926 151.62302 27272 ft 405 kts
2026-05-05 01:46 -33.36230 151.63321 27819 ft 406 kts
2026-05-05 01:46 -33.33563 151.64328 28367 ft 407 kts
2026-05-05 01:46 -33.30861 151.65347 28875 ft 408 kts
2026-05-05 01:46 -33.28145 151.66373 29359 ft 410 kts
2026-05-05 01:47 -33.25417 151.67400 29824 ft 412 kts
2026-05-05 01:47 -33.22671 151.68433 30281 ft 414 kts
2026-05-05 01:47 -33.19914 151.69470 30642 ft 416 kts
2026-05-05 01:47 -33.17141 151.70511 30965 ft 419 kts
2026-05-05 01:48 -33.14349 151.71560 31278 ft 422 kts
2026-05-05 01:48 -33.11539 151.72615 31591 ft 424 kts
2026-05-05 01:48 -33.08722 151.73674 31959 ft 424 kts
2026-05-05 01:48 -33.05942 151.74720 32381 ft 423 kts
2026-05-05 01:49 -33.03134 151.75777 32808 ft 422 kts
2026-05-05 01:49 -33.00332 151.76829 33195 ft 422 kts
2026-05-05 01:49 -32.97526 151.77881 33570 ft 422 kts
2026-05-05 01:49 -32.94724 151.78930 33962 ft 421 kts
2026-05-05 01:50 -32.91920 151.79979 34307 ft 421 kts
2026-05-05 01:50 -32.89121 151.81024 34565 ft 422 kts
2026-05-05 01:50 -32.86303 151.82074 34736 ft 425 kts
2026-05-05 01:50 -32.84424 151.82772 34793 ft 429 kts
2026-05-05 01:51 -32.80631 151.84182 35123 ft 430 kts
2026-05-05 01:51 -32.77782 151.85247 35443 ft 428 kts
2026-05-05 01:51 -32.75865 151.85964 35628 ft 428 kts
2026-05-05 01:51 -32.73016 151.87025 35842 ft 430 kts
2026-05-05 01:52 -32.70152 151.88090 36069 ft 431 kts
2026-05-05 01:52 -32.67293 151.89154 36343 ft 431 kts
2026-05-05 01:52 -32.64471 151.90203 36596 ft 431 kts
2026-05-05 01:52 -32.61604 151.91268 36799 ft 432 kts
2026-05-05 01:53 -32.58731 151.92333 37027 ft 433 kts
2026-05-05 01:53 -32.55857 151.93399 37272 ft 432 kts
2026-05-05 01:53 -32.52976 151.94466 37429 ft 434 kts
2026-05-05 01:53 -32.50076 151.95539 37619 ft 436 kts
2026-05-05 01:54 -32.47184 151.96614 37853 ft 435 kts
2026-05-05 01:54 -32.44289 151.97665 38115 ft 434 kts
2026-05-05 01:54 -32.41429 151.98695 38266 ft 436 kts
2026-05-05 01:54 -32.38518 151.99745 38397 ft 438 kts
2026-05-05 01:55 -32.35603 152.00806 38651 ft 438 kts
2026-05-05 01:55 -32.32693 152.01873 38872 ft 437 kts
2026-05-05 01:55 -32.29784 152.02945 39050 ft 437 kts
2026-05-05 01:55 -32.26881 152.04018 39118 ft 438 kts
2026-05-05 01:56 -32.21044 152.06167 39105 ft 439 kts
2026-05-05 01:56 -32.15201 152.08323 39121 ft 440 kts
2026-05-05 01:57 -32.09389 152.10452 39126 ft 440 kts
2026-05-05 01:57 -32.03517 152.12595 39151 ft 441 kts
2026-05-05 01:58 -31.97644 152.14758 39123 ft 443 kts
2026-05-05 01:58 -31.91757 152.16921 39133 ft 443 kts
2026-05-05 01:59 -31.85871 152.19074 39132 ft 443 kts
2026-05-05 01:59 -31.80034 152.21197 39139 ft 440 kts
2026-05-05 02:00 -31.74193 152.23333 39122 ft 435 kts
2026-05-05 02:00 -31.68478 152.25432 39107 ft 426 kts
2026-05-05 02:01 -31.62841 152.27473 39117 ft 424 kts
2026-05-05 02:01 -31.57232 152.29592 39138 ft 428 kts
2026-05-05 02:02 -31.51507 152.31638 39101 ft 433 kts
2026-05-05 02:02 -31.45824 152.33795 39130 ft 428 kts
2026-05-05 02:03 -31.40083 152.35766 39112 ft 430 kts
2026-05-05 02:03 -31.34388 152.37816 39123 ft 432 kts
2026-05-05 02:04 -31.28652 152.39908 39109 ft 429 kts
2026-05-05 02:04 -31.22943 152.41922 39110 ft 427 kts
2026-05-05 02:05 -31.17259 152.43969 39147 ft 428 kts
2026-05-05 02:05 -31.11564 152.45932 39100 ft 429 kts
2026-05-05 02:06 -31.05929 152.47990 39082 ft 426 kts
2026-05-05 02:06 -31.00285 152.50047 39098 ft 423 kts
2026-05-05 02:07 -30.94681 152.52043 39094 ft 420 kts
2026-05-05 02:07 -30.89114 152.54044 39083 ft 417 kts
2026-05-05 02:08 -30.83597 152.56014 39087 ft 417 kts
2026-05-05 02:08 -30.78018 152.57760 39104 ft 408 kts 355°
2026-05-05 02:09 -30.72385 152.58814 39095 ft 415 kts 356°
2026-05-05 02:09 -30.66769 152.59766 39095 ft 407 kts 353°
2026-05-05 02:10 -30.61192 152.60719 39064 ft 408 kts 354°
2026-05-05 02:10 -30.55594 152.61740 39080 ft 406 kts 354°
2026-05-05 02:11 -30.50037 152.62777 39113 ft 403 kts 354°
2026-05-05 02:11 -30.44470 152.63776 39100 ft 404 kts 354°
2026-05-05 02:12 -30.36121 152.65290 39090 ft 408 kts 354°
2026-05-05 02:13 -30.30509 152.66297 39093 ft 409 kts 354°
2026-05-05 02:13 -30.24849 152.67313 39091 ft 411 kts 354°
2026-05-05 02:14 -30.19181 152.68335 39098 ft 412 kts 354°
2026-05-05 02:14 -30.13549 152.69350 38901 ft 414 kts 354°
2026-05-05 02:14 -30.10680 152.69857 38427 ft 415 kts 354°
2026-05-05 02:15 -30.07827 152.70374 37818 ft 414 kts 355°
2026-05-05 02:15 -30.04994 152.70891 37235 ft 411 kts 355°
2026-05-05 02:15 -30.02167 152.71414 36652 ft 412 kts 356°
2026-05-05 02:15 -29.99347 152.71968 36026 ft 409 kts 355°
2026-05-05 02:16 -29.96531 152.72466 35398 ft 409 kts 355°
2026-05-05 02:16 -29.93709 152.72954 34727 ft 410 kts 356°
2026-05-05 02:16 -29.90876 152.73444 33999 ft 414 kts 356°
2026-05-05 02:16 -29.88014 152.73955 33188 ft 416 kts 357°
2026-05-05 02:17 -29.85190 152.74458 32421 ft 417 kts 357°
2026-05-05 02:17 -29.82320 152.74970 31671 ft 418 kts 358°
2026-05-05 02:17 -29.79441 152.75473 30849 ft 418 kts 358°
2026-05-05 02:17 -29.76560 152.75985 30079 ft 419 kts 359°
2026-05-05 02:18 -29.73653 152.76505 29058 ft 424 kts 359°
2026-05-05 02:18 -29.70747 152.77030 28404 ft 420 kts 360°
2026-05-05 02:18 -29.67859 152.77549 27690 ft 419 kts
2026-05-05 02:18 -29.65004 152.78059 27043 ft 420 kts
2026-05-05 02:19 -29.62111 152.78575 26355 ft 417 kts
2026-05-05 02:19 -29.59255 152.79086 25714 ft 413 kts
2026-05-05 02:19 -29.56416 152.79593 25370 ft 413 kts
2026-05-05 02:19 -29.53612 152.80094 25230 ft 400 kts
2026-05-05 02:20 -29.50909 152.80581 25109 ft 385 kts
2026-05-05 02:20 -29.48349 152.81040 25066 ft 367 kts
2026-05-05 02:20 -29.45891 152.81477 24928 ft 348 kts 360°
2026-05-05 02:20 -29.43538 152.81898 24528 ft 337 kts
2026-05-05 02:21 -29.41245 152.82335 24016 ft 334 kts
2026-05-05 02:21 -29.39002 152.83099 23334 ft 338 kts 10°
2026-05-05 02:21 -29.36744 152.84033 22091 ft 352 kts 13°
2026-05-05 02:21 -29.34407 152.85028 20828 ft 364 kts 14°
2026-05-05 02:22 -29.32053 152.86041 20137 ft 364 kts 15°
2026-05-05 02:22 -29.29660 152.87070 19503 ft 371 kts 16°
2026-05-05 02:22 -29.27219 152.88111 18901 ft 378 kts 16°
2026-05-05 02:22 -29.24721 152.89170 18248 ft 386 kts 17°
2026-05-05 02:23 -29.22184 152.90242 17526 ft 387 kts 17°
2026-05-05 02:23 -29.19663 152.91306 16858 ft 384 kts 18°
2026-05-05 02:23 -29.17201 152.92344 16228 ft 380 kts 18°
2026-05-05 02:23 -29.14723 152.93385 15592 ft 378 kts 18°
2026-05-05 02:24 -29.12255 152.94421 14985 ft 376 kts 18°
2026-05-05 02:24 -29.09803 152.95449 14343 ft 375 kts 19°
2026-05-05 02:24 -29.07359 152.96473 13690 ft 374 kts 19°
2026-05-05 02:24 -29.04912 152.97498 12945 ft 374 kts 19°
2026-05-05 02:25 -29.02472 152.98520 12298 ft 372 kts 19°
2026-05-05 02:25 -29.00049 152.99535 11671 ft 369 kts 19°
2026-05-05 02:25 -28.97652 153.00538 11066 ft 366 kts 19°
2026-05-05 02:25 -28.95289 153.01558 10663 ft 357 kts 24°
2026-05-05 02:26 -28.93348 153.03200 10253 ft 350 kts 52°
2026-05-05 02:26 -28.92194 153.05578 10053 ft 337 kts 71°
2026-05-05 02:26 -28.91587 153.08105 9915 ft 322 kts 77°
2026-05-05 02:26 -28.91108 153.10530 9895 ft 301 kts 78°
2026-05-05 02:27 -28.90676 153.12788 9705 ft 284 kts 78°
2026-05-05 02:27 -28.90255 153.14968 9277 ft 278 kts 78°
2026-05-05 02:27 -28.89834 153.17116 8751 ft 277 kts 78°
2026-05-05 02:27 -28.89408 153.19260 8263 ft 275 kts 78°
2026-05-05 02:28 -28.88983 153.21374 7925 ft 272 kts 78°
2026-05-05 02:28 -28.88565 153.23444 7617 ft 270 kts 78°
2026-05-05 02:28 -28.88142 153.25524 7358 ft 267 kts 78°
2026-05-05 02:28 -28.87723 153.27580 7100 ft 266 kts 78°
2026-05-05 02:29 -28.87300 153.29647 6819 ft 269 kts 78°
2026-05-05 02:29 -28.86876 153.31722 6531 ft 268 kts 78°
2026-05-05 02:29 -28.86453 153.33783 6236 ft 266 kts 78°
2026-05-05 02:29 -28.86034 153.35833 5927 ft 265 kts 78°
2026-05-05 02:30 -28.85617 153.37872 5631 ft 262 kts 78°
2026-05-05 02:30 -28.85201 153.39898 5323 ft 262 kts 78°
2026-05-05 02:30 -28.84790 153.41882 5164 ft 255 kts 77°
2026-05-05 02:30 -28.84390 153.43825 5037 ft 247 kts 77°
2026-05-05 02:31 -28.84000 153.45704 4934 ft 240 kts 76°
2026-05-05 02:31 -28.83262 153.47354 4833 ft 230 kts 50°
2026-05-05 02:31 -28.82253 153.48693 4739 ft 216 kts 50°
2026-05-05 02:31 -28.81299 153.49956 4590 ft 205 kts 50°
2026-05-05 02:32 -28.80384 153.51175 4367 ft 199 kts 49°
2026-05-05 02:32 -28.79504 153.52352 4151 ft 192 kts 50°
2026-05-05 02:32 -28.78655 153.53491 3942 ft 186 kts 50°
2026-05-05 02:32 -28.77832 153.54595 3742 ft 180 kts 50°
2026-05-05 02:33 -28.77025 153.55677 3545 ft 179 kts 49°
2026-05-05 02:33 -28.76220 153.56749 3348 ft 178 kts 49°
2026-05-05 02:33 -28.75440 153.57825 3159 ft 179 kts 54°
2026-05-05 02:33 -28.74808 153.59043 2911 ft 177 kts 70°
2026-05-05 02:34 -28.74576 153.60394 2717 ft 172 kts 91°
2026-05-05 02:34 -28.74772 153.61728 2532 ft 171 kts 111°
2026-05-05 02:34 -28.75330 153.62912 2339 ft 166 kts 129°
2026-05-05 02:34 -28.76130 153.63792 2163 ft 157 kts 147°
2026-05-05 02:35 -28.77092 153.64365 1973 ft 158 kts 159°
2026-05-05 02:35 -28.78130 153.64665 1717 ft 152 kts 175°
2026-05-05 02:35 -28.79152 153.64567 1503 ft 142 kts 194°
2026-05-05 02:35 -28.80064 153.64152 1386 ft 142 kts 210°
2026-05-05 02:36 -28.80860 153.63506 1232 ft 139 kts 224°
2026-05-05 02:36 -28.81474 153.62656 1067 ft 139 kts 240°
2026-05-05 02:36 -28.81858 153.61658 923 ft 137 kts 250°
2026-05-05 02:36 -28.82156 153.60641 769 ft 138 kts 254°
2026-05-05 02:37 -28.82413 153.59564 573 ft 141 kts 254°
2026-05-05 02:37 -28.82702 153.58501 351 ft 140 kts 254°
2026-05-05 02:37 -28.82983 153.57446 124 ft 140 kts 254°
2026-05-05 02:37 -28.83257 153.56391 14 ft 129 kts 253°
2026-05-05 02:38 -28.83401 153.55840 14 ft 89 kts 253°
2026-05-05 02:38 -28.83516 153.55400 10 ft 27 kts 253°
2026-05-05 02:38 -28.83548 153.55281 10 ft 14 kts 253°
2026-05-05 02:38 -28.83581 153.55219 12 ft 6 kts 221°
2026-05-05 02:39 -28.83576 153.55194 10 ft 4 kts 347°
2026-05-05 02:39 -28.83563 153.55222 12 ft 4 kts 76°
2026-05-05 02:39 -28.83552 153.55268 12 ft 11 kts 73°
2026-05-05 02:39 -28.83519 153.55391 11 ft 21 kts 73°
2026-05-05 02:40 -28.83466 153.55594 13 ft 13 kts 73°
2026-05-05 02:40 -28.83471 153.55646 13 ft 10 kts 133°
2026-05-05 02:40 -28.83537 153.55674 13 ft 10 kts 162°
2026-05-05 02:40 -28.83603 153.55697 13 ft 10 kts 163°
2026-05-05 02:41 -28.83650 153.55706 13 ft 6 kts 195°
2026-05-05 02:41 -28.83672 153.55694 14 ft 2 kts 207°
2026-05-05 02:41 -28.83676 153.55691 13 ft 0 kts 207°